Aduana, Mexico

6:31 AM on October 19, 2017 (GMT +0000)
Aduana

Weather History for 76590 - August, 2013

Change the Weather History Date:

Sunday, August 11, 2013

  Actual Average Record
Temperature  
Mean Temperature 82 °F -  
Max Temperature 87 °F 89 °F - ()
Min Temperature 78 °F 73 °F - ()
Cooling Degree Days 18    
Growing Degree Days 32 (Base 50)    
Moisture  
Dew Point 77 °F    
Average Humidity 83    
Maximum Humidity 94    
Minimum Humidity 70    
Precipitation  
Precipitation 0.05 in - - ()
Sea Level Pressure  
Sea Level Pressure 29.98 in    
Wind  
Wind Speed 5 mph ()    
Max Wind Speed 15 mph    
Max Gust Speed -    
Visibility 7.0 miles    
Events      
T = Trace of Precipitation, MM = Missing Value Source: Averaged Metar Reports

Daily Weather History Graph

Daily Weather History Graph

Search for Another Location

Airport or City:

Trip Planner

Search our weather history database for the weather conditions in past years. The results will help you decide how hot, cold, wet, or windy it might be!

Date:

Astronomy

Aug. 11, 2013 Rise Set
Actual Time 11:25 AM UTC 12:19 AM UTC
Civil Twilight 11:01 AM UTC 12:43 AM UTC
Nautical Twilight 10:34 AM UTC 1:10 AM UTC
Astronomical Twilight 10:06 AM UTC 1:38 AM UTC
Moon 3:27 PM UTC (8/11) 2:42 AM UTC (8/11)
Length of Visible Light 13h 41m
Length of Day
12h 54m
Waxing Crescent, 20% of the Moon is Illuminated
Aug 11
Waxing Crescent
Aug 14
First Quarter
Aug 21
Full
Aug 28
Last Quarter
Sep 5
New

Hourly Weather History & Observations

Time (GMT) Temp. Heat Index Dew Point Humidity Pressure Visibility Wind Dir Wind Speed Gust Speed Precip Events Conditions
12:41 AM 82.4 °F 90.9 °F 77.0 °F 84% 29.96 in 7.0 mi East 6.9 mph - N/A   Scattered Clouds
1:40 AM 82.4 °F 90.9 °F 77.0 °F 84% 29.98 in 7.0 mi East 5.8 mph - N/A   Scattered Clouds
2:41 AM 82.4 °F 90.9 °F 77.0 °F 84% 29.99 in 7.0 mi East 5.8 mph - N/A   Partly Cloudy
3:40 AM 82.4 °F 90.9 °F 77.0 °F 84% 30.00 in 7.0 mi East 3.5 mph - N/A   Partly Cloudy
4:43 AM 82.4 °F 90.9 °F 77.0 °F 84% 30.00 in 7.0 mi East 5.8 mph - N/A   Partly Cloudy
5:43 AM 80.6 °F 87.1 °F 77.0 °F 89% 30.01 in 7.0 mi East 4.6 mph - N/A   Partly Cloudy
6:41 AM 80.6 °F 87.1 °F 77.0 °F 89% 29.98 in 7.0 mi ENE 2.3 mph - N/A   Partly Cloudy
7:44 AM 80.6 °F 87.1 °F 77.0 °F 89% 29.97 in 7.0 mi NNE 4.6 mph - N/A   Mostly Cloudy
8:41 AM 78.8 °F - 77.0 °F 94% 29.96 in 7.0 mi NNE 2.3 mph - N/A   Partly Cloudy
9:40 AM 78.8 °F - 77.0 °F 94% 29.96 in 7.0 mi ENE 3.5 mph - N/A   Partly Cloudy
10:40 AM 78.8 °F - 77.0 °F 94% 29.97 in 7.0 mi NE 2.3 mph - N/A   Scattered Clouds
11:46 AM 78.8 °F - 77.0 °F 94% 29.99 in 7.0 mi NE 2.3 mph - N/A   Scattered Clouds
12:43 PM 80.6 °F 87.1 °F 77.0 °F 89% 30.00 in 7.0 mi NE 6.9 mph - N/A   Mostly Cloudy
1:43 PM 80.6 °F 87.1 °F 77.0 °F 89% 30.01 in 7.0 mi ENE 3.5 mph - N/A   Mostly Cloudy
2:44 PM 84.2 °F 94.1 °F 77.0 °F 79% 30.02 in 7.0 mi ENE 5.8 mph - N/A   Mostly Cloudy
3:46 PM 86.0 °F 99.3 °F 78.8 °F 79% 30.03 in 7.0 mi East 6.9 mph - N/A   Mostly Cloudy
4:44 PM 86.0 °F 96.9 °F 77.0 °F 74% 30.02 in 7.0 mi East 13.8 mph - N/A   Mostly Cloudy
5:45 PM 86.0 °F 99.3 °F 78.8 °F 79% 30.01 in 7.0 mi East 8.1 mph - N/A   Mostly Cloudy
6:41 PM 87.8 °F 102.5 °F 78.8 °F 75% 29.99 in 7.0 mi East 10.4 mph - N/A   Mostly Cloudy
7:43 PM 87.8 °F 99.7 °F 77.0 °F 70% 29.97 in 7.0 mi ESE 6.9 mph - N/A   Mostly Cloudy
8:44 PM 87.8 °F 99.7 °F 77.0 °F 70% 29.96 in 7.0 mi East 12.7 mph - N/A   Mostly Cloudy
9:45 PM 86.0 °F 99.3 °F 78.8 °F 79% 29.95 in 7.0 mi East 8.1 mph - N/A   Mostly Cloudy
10:41 PM 86.0 °F 99.3 °F 78.8 °F 79% 29.95 in 7.0 mi East 15.0 mph - N/A   Mostly Cloudy
11:44 PM 84.2 °F 94.1 °F 77.0 °F 79% 29.93 in 7.0 mi East 8.1 mph - N/A   Mostly Cloudy